Weather History for Bentonville, AR

Change the Weather History Date:

Monday, April 8, 2013

  Actual Average Record
Temperature  
Mean Temperature 66 °F -  
Max Temperature 71 °F 69 °F 87 °F (2011)
Min Temperature 60 °F 43 °F 25 °F (1990)
Growing Degree Days 16 (Base 50)    
Moisture  
Dew Point 56 °F    
Average Humidity 70    
Maximum Humidity 82    
Minimum Humidity 57    
Precipitation  
Precipitation 0.22 in - - ()
Sea Level Pressure  
Sea Level Pressure 29.77 in    
Wind  
Wind Speed 10 mph (South)    
Max Wind Speed 21 mph    
Max Gust Speed 25 mph    
Visibility 10 miles    
Events Thunderstorm    
Averages and records for this station are not official NWS values.
T = Trace of Precipitation, MM = Missing Value Source: NWS Daily Summary

Daily Weather History Graph

Daily Weather History Graph

Search for Another Location

Airport:

Trip Planner

Search our weather history database for the weather conditions in past years. The results will help you decide how hot, cold, wet, or windy it might be!

Date:

Astronomy

Apr. 08, 2013 Rise Set
Actual Time 6:52 AM CDT 7:45 PM CDT
Civil Twilight 6:26 AM CDT 8:11 PM CDT
Nautical Twilight 5:55 AM CDT 8:42 PM CDT
Astronomical Twilight 5:23 AM CDT 9:14 PM CDT
Moon 5:40 AM CDT (4/8) 6:21 PM CDT (4/8)
Length of Visible Light 13h 44m
Length of Day
12h 52m
Waning Crescent, 3% of the Moon is Illuminated
Apr 8
Waning Crescent
Apr 10
New
Apr 18
First Quarter
Apr 25
Full
May 2
Last Quarter

Hourly Weather History & Observations

Time (CDT) Temp. Dew Point Humidity Pressure Visibility Wind Dir Wind Speed Gust Speed Precip Events Conditions
12:15 AM 64.4 °F 53.6 °F 68% 29.80 in 10.0 mi South 10.4 mph - N/A   Overcast
12:35 AM 64.4 °F 53.6 °F 68% 29.80 in 10.0 mi South 6.9 mph - N/A   Overcast
12:55 AM 64.4 °F 53.6 °F 68% 29.80 in 10.0 mi South 6.9 mph - N/A   Overcast
1:15 AM 62.6 °F 53.6 °F 72% 29.80 in 10.0 mi SSE 4.6 mph - N/A   Overcast
1:35 AM 62.6 °F 53.6 °F 72% 29.79 in 10.0 mi SSE 8.1 mph - N/A   Overcast
1:55 AM 62.6 °F 53.6 °F 72% 29.79 in 10.0 mi SSE 5.8 mph - N/A   Overcast
2:15 AM 62.6 °F 51.8 °F 68% 29.76 in 10.0 mi SSE 11.5 mph - N/A   Mostly Cloudy
2:35 AM 62.6 °F 51.8 °F 68% 29.76 in 10.0 mi SSE 6.9 mph - N/A   Clear
2:55 AM 62.6 °F 51.8 °F 68% 29.76 in 10.0 mi SSE 6.9 mph - N/A   Mostly Cloudy
3:15 AM 62.6 °F 51.8 °F 68% 29.75 in 10.0 mi SSE 9.2 mph - N/A   Mostly Cloudy
3:35 AM 62.6 °F 51.8 °F 68% 29.73 in 10.0 mi SSE 11.5 mph - N/A   Mostly Cloudy
3:55 AM 62.6 °F 53.6 °F 72% 29.75 in 10.0 mi South 9.2 mph - N/A   Overcast
4:15 AM 62.6 °F 53.6 °F 72% 29.74 in 10.0 mi South 9.2 mph - N/A Thunderstorm Overcast
4:35 AM 60.8 °F 53.6 °F 77% 29.74 in 10.0 mi South 10.4 mph - N/A Thunderstorm Thunderstorm
4:55 AM 60.8 °F 55.4 °F 82% 29.76 in 10.0 mi SSW 15.0 mph 20.7 mph 0.02 in Thunderstorm Thunderstorm
5:15 AM 60.8 °F 55.4 °F 82% 29.75 in 10.0 mi South 12.7 mph 18.4 mph 0.04 in Thunderstorm Thunderstorm
5:35 AM 60.8 °F 55.4 °F 82% 29.74 in 10.0 mi SSW 11.5 mph 20.7 mph 0.11 in Thunderstorm Thunderstorm
5:55 AM 60.8 °F 55.4 °F 82% 29.76 in 10.0 mi SSW 8.1 mph - 0.17 in Thunderstorm Thunderstorm
6:15 AM 60.8 °F 55.4 °F 82% 29.76 in 10.0 mi South 8.1 mph - N/A   Overcast
6:35 AM 62.6 °F 55.4 °F 77% 29.77 in 10.0 mi South 8.1 mph - 0.02 in   Overcast
6:55 AM 62.6 °F 55.4 °F 77% 29.77 in 10.0 mi South 8.1 mph - 0.03 in   Overcast
7:15 AM 62.6 °F 55.4 °F 77% 29.78 in 10.0 mi South 6.9 mph - N/A   Overcast
7:35 AM 62.6 °F 55.4 °F 77% 29.78 in 10.0 mi South 8.1 mph - N/A   Overcast
7:55 AM 62.6 °F 55.4 °F 77% 29.78 in 10.0 mi South 10.4 mph - N/A   Overcast
8:15 AM 64.4 °F 55.4 °F 73% 29.79 in 10.0 mi South 11.5 mph - N/A   Overcast
8:35 AM 62.6 °F 55.4 °F 77% 29.79 in 10.0 mi South 16.1 mph - N/A   Overcast
8:55 AM 62.6 °F 55.4 °F 77% 29.79 in 10.0 mi South 18.4 mph 24.2 mph N/A   Overcast
9:15 AM 62.6 °F 55.4 °F 77% 29.79 in 10.0 mi South 16.1 mph 25.3 mph N/A   Overcast
9:35 AM 62.6 °F 55.4 °F 77% 29.78 in 10.0 mi South 15.0 mph 21.9 mph N/A   Overcast
9:55 AM 64.4 °F 55.4 °F 73% 29.79 in 10.0 mi South 15.0 mph 21.9 mph N/A   Overcast
10:15 AM 64.4 °F 55.4 °F 73% 29.80 in 10.0 mi South 11.5 mph 20.7 mph N/A   Overcast
10:35 AM 64.4 °F 55.4 °F 73% 29.81 in 10.0 mi South 12.7 mph 18.4 mph N/A   Overcast
10:55 AM 64.4 °F 55.4 °F 73% 29.81 in 10.0 mi South 13.8 mph 20.7 mph N/A   Overcast
11:15 AM 66.2 °F 55.4 °F 68% 29.82 in 10.0 mi South 10.4 mph 20.7 mph N/A   Overcast
11:35 AM 66.2 °F 57.2 °F 73% 29.81 in 10.0 mi South 15.0 mph 20.7 mph N/A   Overcast
11:55 AM 69.8 °F 57.2 °F 64% 29.81 in 10.0 mi South 18.4 mph 24.2 mph N/A   Mostly Cloudy
12:15 PM 68.0 °F 57.2 °F 68% 29.80 in 10.0 mi South 13.8 mph 21.9 mph N/A   Overcast
12:35 PM 68.0 °F 57.2 °F 68% 29.80 in 10.0 mi South 18.4 mph 25.3 mph N/A   Overcast
12:55 PM 69.8 °F 57.2 °F 64% 29.79 in 10.0 mi South 13.8 mph 25.3 mph N/A   Overcast
1:15 PM 69.8 °F 57.2 °F 64% 29.78 in 10.0 mi SSE 17.3 mph 23.0 mph N/A   Overcast
1:35 PM 69.8 °F 59.0 °F 68% 29.78 in 10.0 mi South 20.7 mph 24.2 mph N/A   Overcast
1:55 PM 69.8 °F 57.2 °F 64% 29.77 in 10.0 mi South 17.3 mph 24.2 mph N/A   Overcast
2:15 PM 69.8 °F 57.2 °F 64% 29.76 in 10.0 mi South 15.0 mph 21.9 mph N/A   Mostly Cloudy
2:35 PM 69.8 °F 57.2 °F 64% 29.76 in 10.0 mi South 15.0 mph 21.9 mph N/A   Overcast
2:55 PM 69.8 °F 57.2 °F 64% 29.76 in 10.0 mi South 11.5 mph 17.3 mph N/A   Overcast
3:15 PM 66.2 °F 57.2 °F 73% 29.76 in 10.0 mi South 12.7 mph 18.4 mph N/A   Overcast
3:35 PM 66.2 °F 57.2 °F 73% 29.75 in 10.0 mi SSE 12.7 mph - N/A   Overcast
3:55 PM 66.2 °F 57.2 °F 73% 29.74 in 10.0 mi SSE 10.4 mph 16.1 mph N/A   Overcast
4:15 PM 66.2 °F 57.2 °F 73% 29.74 in 10.0 mi SSE 9.2 mph - N/A   Overcast
4:35 PM 68.0 °F 57.2 °F 68% 29.74 in 10.0 mi SSE 9.2 mph - N/A   Overcast
4:55 PM 69.8 °F 57.2 °F 64% 29.74 in 10.0 mi SSE 8.1 mph - N/A   Overcast
5:15 PM 69.8 °F 57.2 °F 64% 29.73 in 10.0 mi South 9.2 mph - N/A   Overcast
5:35 PM 69.8 °F 57.2 °F 64% 29.73 in 10.0 mi SSE 9.2 mph 17.3 mph N/A   Overcast
5:55 PM 69.8 °F 57.2 °F 64% 29.73 in 10.0 mi South 10.4 mph - N/A   Overcast
6:15 PM 69.8 °F 57.2 °F 64% 29.74 in 10.0 mi SSE 8.1 mph - N/A   Overcast
6:35 PM 69.8 °F 57.2 °F 64% 29.74 in 10.0 mi SSE 12.7 mph - N/A   Overcast
6:55 PM 71.6 °F 57.2 °F 60% 29.74 in 10.0 mi South 10.4 mph 17.3 mph N/A   Overcast
7:15 PM 71.6 °F 55.4 °F 57% 29.75 in 10.0 mi South 10.4 mph 19.6 mph N/A   Overcast
7:35 PM 69.8 °F 55.4 °F 60% 29.75 in 10.0 mi SSE 13.8 mph - N/A   Overcast
7:55 PM 69.8 °F 55.4 °F 60% 29.75 in 10.0 mi South 11.5 mph - N/A   Overcast
8:15 PM 69.8 °F 55.4 °F 60% 29.75 in 10.0 mi SSE 9.2 mph - N/A   Overcast
8:35 PM 69.8 °F 55.4 °F 60% 29.75 in 10.0 mi SSE 8.1 mph - N/A   Mostly Cloudy
8:55 PM 68.0 °F 55.4 °F 64% 29.75 in 10.0 mi SSE 10.4 mph - N/A   Scattered Clouds
9:15 PM 66.2 °F 55.4 °F 68% 29.75 in 10.0 mi SE 10.4 mph - N/A   Partly Cloudy
9:35 PM 66.2 °F 55.4 °F 68% 29.75 in 10.0 mi SSE 9.2 mph - N/A   Scattered Clouds
9:55 PM 66.2 °F 55.4 °F 68% 29.76 in 10.0 mi SSE 8.1 mph - N/A   Partly Cloudy
10:15 PM 66.2 °F 55.4 °F 68% 29.75 in 10.0 mi SSE 5.8 mph - N/A   Partly Cloudy
10:35 PM 64.4 °F 55.4 °F 73% 29.74 in 10.0 mi SSE 9.2 mph - N/A   Clear
10:55 PM 66.2 °F 55.4 °F 68% 29.74 in 10.0 mi SE 9.2 mph - N/A   Scattered Clouds
11:15 PM 66.2 °F 55.4 °F 68% 29.74 in 10.0 mi SSE 8.1 mph - N/A   Mostly Cloudy
11:35 PM 66.2 °F 55.4 °F 68% 29.74 in 10.0 mi SSE 9.2 mph - N/A   Overcast
11:55 PM 68.0 °F 55.4 °F 64% 29.74 in 10.0 mi SSE 10.4 mph - N/A   Overcast